Location: Passau
(48.5830°N, 13.4830°E)
Time: 21:37:57
(UTC+02:00)

S-56A Canister/Altair - Pass Details

Date: 19 May 2024
Orbit: 637 x 2489 km, 38.9° (Epoch: 16 June)

Event Time Altitude Azimuth Distance (km) Brightness Sun altitude
Rises 13:02:26 0° 269° (W) 4,168 11.3 61.3°
Reaches altitude 10° 13:06:20 10° 255° (WSW) 2,869 10.7 61.3°
Maximum altitude 13:11:07 21° 208° (SSW) 1,827 10.3 61.3°
Drops below altitude 10° 13:14:58 10° 159° (SSE) 2,245 10.5 61.2°
Sets 13:17:36 0° 143° (SE) 3,034 10.9 61.2°
